[[{"header":{"parameterUnit":"m.s-1","parameterCategory":1,"la1":30.2991,"la2":30.254,"lo1":-89.0895,"lo2":-89.0444,"dy":0.0017,"dx":0.0017,"nx":28,"ny":28,"refTime":"2024-04-20T09:00:00:Z","depth":0,"parameterNumber":2,"parameterNumberName":"U-component_of_WINDS"},"data":[0,0,0,0,0,0,0,0,0,0,0,0,0,0,0,0,0,0,0,0,0,0,0,0,0,0,0,0,0,0,0,0,0,0,0,0,0,0,0,0,0,0,0,0,0,0,0,0,0,0,0,0,0,0,0,0,0,0,-1.272,-1.2722,0,-1.2848,-1.2849,-1.2851,-1.2799,-1.2796,-1.2792,-1.279,-1.2926,-1.2932,-1.2938,0,0,0,0,0,0,0,0,0,0,0,0,0,-1.2437,-1.2443,-1.272,-1.2722,-1.2724,-1.2847,-1.2849,-1.2851,-1.2799,-1.2795,-1.2792,-1.2788,-1.2923,-1.2931,-1.2939,0,0,0,0,0,0,0,0,0,0,0,0,0,-1.2562,-1.2444,-1.272,-1.2712,-1.2713,-1.2847,-1.2849,-1.2851,-1.28,-1.2795,-1.2791,-1.2787,-1.2921,-1.293,-1.294,-1.3091,0,0,-1.2969,-1.2974,0,0,0,0,0,0,0,0,-1.2555,-1.2572,-1.2712,-1.2713,-1.2714,-1.2802,-1.2799,-1.2932,-1.2801,-1.2767,-1.279,-1.2784,-1.2889,-1.2901,-1.2935,-1.3097,-1.3103,-1.297,-1.2976,-1.298,-1.2983,0,0,0,0,0,0,0,-1.2546,-1.2567,-1.2771,-1.2714,-1.2715,-1.2704,-1.2717,-1.2824,-1.2852,-1.277,-1.2766,-1.2782,-1.2888,-1.2926,-1.2938,-1.3105,-1.297,-1.2979,-1.2984,-1.2988,-1.3399,-1.3404,0,0,0,0,0,0,-1.2537,-1.256,-1.2767,-1.2775,-1.2621,-1.2713,-1.2727,-1.2779,-1.2851,-1.2857,-1.2785,-1.2779,-1.2911,-1.2926,-1.2942,-1.3126,-1.298,-1.2989,-1.2995,-1.3394,-1.34,-1.3406,0,0,0,0,0,0,-1.2531,-1.2556,-1.2762,-1.2666,-1.2692,-1.2723,-1.2781,-1.2784,-1.2821,-1.2862,-1.2868,-1.2818,-1.2908,-1.2928,-1.3054,-1.3129,-1.2994,-1.3002,-1.3388,-1.3396,-1.3403,-1.3492,0,0,0,0,0,0,-1.2523,-1.2554,-1.2611,-1.2668,-1.2697,-1.2871,-1.2786,-1.2789,-1.2837,-1.283,-1.2894,-1.2901,-1.2906,-1.304,-1.3064,-1.314,-1.301,-1.3381,-1.3391,-1.34,-1.3483,-1.3502,-1.3519,0,0,0,0,0,-1.2513,-1.2632,-1.2614,-1.2639,-1.2768,-1.2875,-1.2892,-1.2894,-1.2843,-1.2901,-1.2928,-1.2899,-1.3116,-1.3053,-1.308,-1.316,-1.3377,-1.3389,-1.34,-1.3475,-1.3498,-1.3518,0,0,0,0,0,0,-1.2585,-1.2639,-1.262,-1.276,-1.2813,-1.2866,-1.294,-1.2918,-1.2988,-1.2979,-1.298,-1.2995,-1.3125,-1.3154,-1.3083,-1.3311,-1.3239,-1.3256,-1.3287,-1.331,-1.3327,-1.3319,-1.3018,0,0,0,0,0,-1.2616,-1.2696,-1.274,-1.286,-1.2887,-1.2909,-1.2955,-1.2952,-1.3008,-1.3031,-1.3066,-1.3123,-1.3204,-1.3258,-1.3335,-1.3485,-1.35,-1.3554,-1.3571,-1.3586,-1.3602,-1.3686,-1.3712,-1.3443,-1.3443,-1.3443,0,0,-1.2683,-1.2723,-1.2774,-1.2875,-1.2916,-1.3001,-1.2928,-1.3021,-1.3085,-1.3045,-1.3167,-1.3194,-1.3258,-1.3397,-1.346,-1.3426,-1.3679,-1.3601,-1.3612,-1.3621,-1.3701,-1.3726,-1.3749,-1.3451,-1.345,-1.3448,0,0,-1.285,-1.2887,-1.2991,-1.3033,-1.3095,-1.3108,-1.3133,-1.3189,-1.3206,-1.3327,-1.3299,-1.3375,-1.3514,-1.3561,-1.3603,-1.3786,-1.3763,-1.3811,-1.3906,-1.3988,-1.4009,-1.4028,-1.4096,-1.4121,-1.3826,-1.3826,-1.3827,0,-1.2927,-1.3052,-1.3048,-1.3144,-1.319,-1.3155,-1.3262,-1.3303,-1.3388,-1.3422,-1.3381,-1.3555,-1.3595,-1.3746,-1.379,-1.3824,-1.3855,-1.3806,-1.4006,-1.4025,-1.4042,-1.4108,-1.4133,-1.3832,-1.3831,-1.3831,-1.383,0,-1.3145,-1.3233,-1.331,-1.3391,-1.3445,-1.3546,-1.3559,-1.3615,-1.3606,-1.3624,-1.3749,-1.3795,-1.3881,-1.3916,-1.3909,-1.4067,-1.4044,-1.4004,-1.3933,-1.4074,-1.4135,-1.416,-1.384,-1.3838,-1.3837,-1.3835,0,0,-1.3364,-1.3439,-1.3468,-1.3505,-1.357,-1.3639,-1.3738,-1.3821,-1.387,-1.3929,-1.4015,-1.4132,-1.4096,-1.4144,-1.4142,-1.4213,-1.4359,-1.4165,-1.4167,-1.4203,-1.4538,-1.457,-1.4599,-1.4342,-1.4346,-1.435,-1.4534,0,-1.3538,-1.3712,-1.371,-1.3872,-1.3954,-1.3921,-1.4008,-1.4058,-1.4077,-1.4151,-1.4172,-1.4257,-1.4202,-1.4231,-1.4299,-1.4326,-1.4427,-1.4312,-1.4425,-1.4429,-1.4414,-1.4631,-1.4665,-1.4837,-1.4558,-1.4562,-1.4565,0,-1.3766,-1.3831,-1.4,-1.4053,-1.4088,-1.4166,-1.4242,-1.4312,-1.4369,-1.4377,-1.443,-1.4417,-1.452,-1.4442,-1.4586,-1.4509,-1.4554,-1.4574,-1.458,-1.4595,-1.4508,-1.4655,-1.4891,-1.4919,-1.4602,-1.4599,-1.4596,0,-1.3913,-1.4042,-1.4161,-1.4193,-1.4257,-1.4313,-1.4343,-1.4394,-1.4444,-1.4511,-1.4544,-1.4622,-1.4666,-1.4727,-1.4736,-1.4678,-1.4881,-1.4804,-1.4895,-1.4895,-1.4943,-1.4941,-1.5194,-1.4965,-1.4965,-1.4964,-1.4964,0,-1.411,-1.4216,-1.4228,-1.4301,-1.4419,-1.4416,-1.4534,-1.4559,-1.4605,-1.4684,-1.4659,-1.4734,-1.4739,-1.4816,-1.4823,-1.4943,-1.4962,-1.4974,-1.4976,-1.4979,-1.4978,-1.5012,-1.5002,-1.4971,-1.497,-1.4968,-1.4967,0,-1.4296,-1.4308,-1.4436,-1.4485,-1.45,-1.4585,-1.4628,-1.4699,-1.4714,-1.4815,-1.4838,-1.4864,-1.4954,-1.4967,-1.5073,-1.5077,-1.5222,-1.5209,-1.5203,-1.5203,-1.5294,-1.5287,-1.5582,-1.5622,-1.5363,-1.5366,-1.5368,0,-1.4424,-1.4504,-1.4562,-1.4612,-1.4644,-1.4726,-1.4776,-1.4776,-1.483,-1.49,-1.4963,-1.505,-1.512,-1.5265,-1.5295,-1.5375,-1.5367,-1.5464,-1.5379,-1.538,-1.5373,-1.537,-1.5379,-1.5483,-1.5485,-1.5488,-1.5489,0,-1.465,-1.4651,-1.4724,-1.4799,-1.486,-1.4919,-1.4975,-1.5018,-1.5025,-1.5087,-1.5178,-1.5232,-1.5339,-1.5427,-1.5507,-1.5539,-1.5518,-1.5515,-1.5541,-1.5548,-1.5543,-1.555,-1.5253,-1.551,-1.5508,-1.5506,-1.5505,-1.5504,-1.4813,-1.4884,-1.4935,-1.5018,-1.5059,-1.5112,-1.5182,-1.5205,-1.528,-1.5366,-1.5361,-1.5462,-1.5517,-1.5622,-1.5659,-1.5739,-1.5708,-1.5745,-1.5755,-1.5765,-1.5776,-1.5526,-1.5753,-1.5753,-1.5752,-1.5752,-1.5751,0,-1.5041,-1.5072,-1.5147,-1.5226,-1.5291,-1.526,-1.5321,-1.5378,-1.5467,-1.5518,-1.5587,-1.5692,-1.5777,-1.5812,-1.5895,-1.5953,-1.5945,-1.5975,-1.5973,-1.5982,-1.5797,-1.5768,-1.598,-1.598,-1.598,-1.598,-1.598,-1.598,-1.5168,-1.5286,-1.5294,-1.5433,-1.5464,-1.5561,-1.5599,-1.5648,-1.569,-1.5808,-1.5877,-1.5898,-1.5944,-1.603,-1.6107,-1.6115,-1.6149,-1.6185,-1.6189,-1.6017,-1.5994,-1.5972,-1.5945,-1.6191,-1.6191,-1.6367,-1.6369,-1.637]},{"header":{"parameterUnit":"m.s-1","parameterCategory":1,"la1":30.2991,"la2":30.254,"lo1":-89.0895,"lo2":-89.0444,"dy":0.0017,"dx":0.0017,"nx":28,"ny":28,"refTime":"2024-04-20T09:00:00:Z","depth":0,"parameterNumber":3,"parameterNumberName":"V-component_of_WINDS"},"data":[0,0,0,0,0,0,0,0,0,0,0,0,0,0,0,0,0,0,0,0,0,0,0,0,0,0,0,0,0,0,0,0,0,0,0,0,0,0,0,0,0,0,0,0,0,0,0,0,0,0,0,0,0,0,0,0,0,0,-6.5513,-6.5514,0,-6.5629,-6.563,-6.5631,-6.5521,-6.5516,-6.5512,-6.5508,-6.5621,-6.5627,-6.5634,0,0,0,0,0,0,0,0,0,0,0,0,0,-6.5189,-6.5195,-6.5513,-6.5514,-6.5516,-6.5628,-6.563,-6.5632,-6.5521,-6.5516,-6.5511,-6.5506,-6.5618,-6.5627,-6.5635,0,0,0,0,0,0,0,0,0,0,0,0,0,-6.532,-6.5198,-6.5512,-6.5474,-6.5472,-6.5628,-6.563,-6.5632,-6.5522,-6.5516,-6.5509,-6.5503,-6.5615,-6.5626,-6.5636,-6.5834,0,0,-6.5669,-6.5673,0,0,0,0,0,0,0,0,-6.5312,-6.5332,-6.5478,-6.5477,-6.5475,-6.5554,-6.5557,-6.57,-6.5524,-6.5503,-6.5507,-6.55,-6.5603,-6.5614,-6.565,-6.5839,-6.5844,-6.567,-6.5676,-6.5681,-6.5684,0,0,0,0,0,0,0,-6.5303,-6.5326,-6.5558,-6.5481,-6.5479,-6.5449,-6.546,-6.5584,-6.5589,-6.5504,-6.5497,-6.5512,-6.5601,-6.5641,-6.5652,-6.5846,-6.567,-6.5679,-6.5686,-6.569,-6.6201,-6.6208,0,0,0,0,0,0,-6.5299,-6.5319,-6.5555,-6.5562,-6.5376,-6.546,-6.5473,-6.5535,-6.5587,-6.5589,-6.5518,-6.5507,-6.5626,-6.564,-6.5656,-6.5891,-6.5681,-6.5691,-6.5697,-6.6194,-6.6203,-6.6211,0,0,0,0,0,0,-6.5293,-6.5321,-6.555,-6.5439,-6.5465,-6.5473,-6.5543,-6.5541,-6.558,-6.5597,-6.5597,-6.5558,-6.5621,-6.5641,-6.5791,-6.5893,-6.5696,-6.5705,-6.6186,-6.6197,-6.6207,-6.6362,0,0,0,0,0,0,-6.5284,-6.532,-6.5397,-6.5441,-6.5472,-6.5686,-6.555,-6.5548,-6.56,-6.5586,-6.5635,-6.5636,-6.5617,-6.5775,-6.5801,-6.5904,-6.5714,-6.6177,-6.6191,-6.6203,-6.6348,-6.6377,-6.6402,0,0,0,0,0,-6.5273,-6.5435,-6.5401,-6.543,-6.5569,-6.5692,-6.5709,-6.5686,-6.5608,-6.5685,-6.5695,-6.5635,-6.5877,-6.5792,-6.582,-6.5927,-6.617,-6.6187,-6.6202,-6.6336,-6.6371,-6.6401,0,0,0,0,0,0,-6.54,-6.544,-6.5403,-6.5585,-6.5636,-6.5673,-6.5769,-6.5724,-6.5796,-6.5781,-6.5746,-6.5758,-6.5917,-6.5936,-6.5841,-6.6121,-6.6011,-6.6033,-6.6103,-6.6136,-6.6163,-6.6155,-6.5722,0,0,0,0,0,-6.545,-6.5549,-6.5577,-6.5734,-6.5762,-6.5761,-6.5814,-6.5792,-6.5842,-6.5863,-6.5884,-6.5934,-6.6021,-6.608,-6.6161,-6.635,-6.6358,-6.6437,-6.6464,-6.6486,-6.6506,-6.6607,-6.6642,-6.6264,-6.6264,-6.6263,0,0,-6.5553,-6.5587,-6.5651,-6.5761,-6.5798,-6.5899,-6.578,-6.5892,-6.5966,-6.5879,-6.6023,-6.604,-6.6093,-6.6264,-6.6339,-6.6285,-6.6612,-6.6507,-6.6524,-6.6532,-6.6627,-6.6663,-6.6694,-6.6275,-6.6273,-6.6271,0,0,-6.5792,-6.5828,-6.5963,-6.6003,-6.6061,-6.6059,-6.6092,-6.6136,-6.6144,-6.6288,-6.6225,-6.6311,-6.6462,-6.6503,-6.6543,-6.6797,-6.6744,-6.6824,-6.6965,-6.7063,-6.7093,-6.7119,-6.7209,-6.7242,-6.6844,-6.6844,-6.6844,0,-6.5912,-6.6064,-6.6037,-6.6155,-6.6204,-6.6132,-6.6267,-6.6306,-6.6387,-6.6422,-6.636,-6.6548,-6.6578,-6.6757,-6.6819,-6.6854,-6.6889,-6.6819,-6.7091,-6.7117,-6.7141,-6.7227,-6.7261,-6.6853,-6.6852,-6.6851,-6.6851,0,-6.6209,-6.6315,-6.6417,-6.6499,-6.656,-6.6685,-6.6675,-6.674,-6.6712,-6.6716,-6.6862,-6.6896,-6.6983,-6.7023,-6.6996,-6.7198,-6.7162,-6.7096,-6.6985,-6.7187,-6.7267,-6.73,-6.6867,-6.6864,-6.6861,-6.6858,0,0,-6.6533,-6.6599,-6.6637,-6.6673,-6.6731,-6.6812,-6.6932,-6.7019,-6.7075,-6.7132,-6.7232,-6.7362,-6.7301,-6.7347,-6.7323,-6.741,-6.7608,-6.7333,-6.7333,-6.7383,-6.7832,-6.7882,-6.792,-6.7573,-6.7579,-6.7584,-6.7827,0,-6.6774,-6.6988,-6.6967,-6.7169,-6.7266,-6.7197,-6.7302,-6.7348,-6.7355,-6.7436,-6.7442,-6.7535,-6.7448,-6.7475,-6.7557,-6.7567,-6.7698,-6.7549,-6.7664,-6.7669,-6.7654,-6.7962,-6.8015,-6.8244,-6.7858,-6.7864,-6.7867,0,-6.7085,-6.7156,-6.7369,-6.7412,-6.7451,-6.7547,-6.7624,-6.7703,-6.7753,-6.7751,-6.7803,-6.7764,-6.7884,-6.777,-6.7933,-6.7832,-6.7878,-6.7889,-6.7897,-6.7908,-6.7781,-6.7981,-6.8316,-6.835,-6.7916,-6.7912,-6.7909,0,-6.7301,-6.7449,-6.7595,-6.7628,-6.7682,-6.775,-6.7775,-6.7819,-6.7872,-6.7938,-6.7972,-6.8051,-6.8094,-6.8155,-6.8138,-6.8057,-6.8305,-6.819,-6.8306,-6.8307,-6.8362,-6.8359,-6.871,-6.8391,-6.8391,-6.839,-6.8389,0,-6.7573,-6.7706,-6.7692,-6.7783,-6.7928,-6.7901,-6.8045,-6.8061,-6.8101,-6.8191,-6.8135,-6.822,-6.8192,-6.8275,-6.8262,-6.8399,-6.8419,-6.842,-6.8415,-6.8426,-6.8426,-6.8455,-6.8439,-6.8399,-6.8397,-6.8395,-6.8394,0,-6.7839,-6.7836,-6.799,-6.8029,-6.8041,-6.8147,-6.8179,-6.8262,-6.8264,-6.8379,-6.8404,-6.8407,-6.8502,-6.849,-6.8596,-6.8587,-6.8757,-6.8733,-6.8742,-6.8736,-6.8854,-6.8843,-6.9236,-6.9286,-6.8935,-6.8938,-6.8941,0,-6.8013,-6.8114,-6.8164,-6.8221,-6.8252,-6.8345,-6.8399,-6.8375,-6.8434,-6.8498,-6.8574,-6.8664,-6.8735,-6.889,-6.8899,-6.898,-6.8957,-6.9089,-6.8968,-6.8976,-6.8959,-6.8954,-6.8963,-6.9113,-6.9117,-6.912,-6.9123,0,-6.8324,-6.8317,-6.8399,-6.8481,-6.8547,-6.861,-6.8666,-6.8716,-6.8697,-6.8765,-6.8863,-6.8918,-6.9026,-6.9116,-6.9192,-6.9214,-6.9166,-6.9161,-6.9192,-6.9204,-6.9205,-6.9207,-6.8807,-6.9152,-6.9149,-6.9147,-6.9145,-6.9144,-6.8549,-6.8635,-6.8684,-6.8777,-6.8817,-6.8871,-6.8952,-6.8964,-6.9046,-6.9134,-6.9113,-6.9224,-6.9268,-6.9365,-6.9396,-6.948,-6.9432,-6.9477,-6.9488,-6.95,-6.9514,-6.9192,-6.9494,-6.9493,-6.9492,-6.9491,-6.9491,0,-6.8857,-6.8885,-6.897,-6.9052,-6.9124,-6.9073,-6.9133,-6.9196,-6.9295,-6.9342,-6.9413,-6.9525,-6.9611,-6.9628,-6.971,-6.9774,-6.9754,-6.9797,-6.9792,-6.9798,-6.9553,-6.9518,-6.9812,-6.9812,-6.9812,-6.9812,-6.9812,-6.9812,-6.9026,-6.9169,-6.9168,-6.9329,-6.9355,-6.9465,-6.9503,-6.9551,-6.9589,-6.9717,-6.979,-6.98,-6.9835,-6.9919,-6.9996,-6.9998,-7.0031,-7.0083,-7.0077,-6.9847,-6.9815,-6.9785,-6.9752,-7.009,-7.0091,-7.0315,-7.0317,-7.0318]}]]